Canton, GA

9:19 AM EDT on October 17, 2019 (GMT -0400)
Canton

Weather History for KCNI - September, 2019

Change the Weather History Date:

Thursday, September 19, 2019

  Actual Average (KMGE) Record (KMGE)
Temperature  
Mean Temperature 73 °F -  
Max Temperature 80 °F 78 °F 93 °F (2018)
Min Temperature 66 °F 61 °F 52 °F (2012)
Cooling Degree Days 8    
Growing Degree Days 23 (Base 50)    
Moisture  
Dew Point 56 °F    
Average Humidity 60    
Maximum Humidity 83    
Minimum Humidity 37    
Precipitation  
Precipitation 0.00 in - - ()
Sea Level Pressure  
Sea Level Pressure 30.22 in    
Wind  
Wind Speed 4 mph (East)    
Max Wind Speed 13 mph    
Max Gust Speed 20 mph    
Visibility 10 miles    
Events      
Averages and records for this station are not official NWS values.
T = Trace of Precipitation, MM = Missing Value Source: NWS Daily Summary

Daily Weather History Graph

Daily Weather History Graph

Search for Another Location

Airport or City:

Astronomy

Sep. 19, 2019 Rise Set
Actual Time 7:23 AM EDT 7:38 PM EDT
Civil Twilight 6:58 AM EDT 8:04 PM EDT
Nautical Twilight 6:29 AM EDT 8:33 PM EDT
Astronomical Twilight 5:59 AM EDT 9:03 PM EDT
Moon 11:00 PM EDT (9/19) 12:13 PM EDT (9/19)
Length of Visible Light 13h 05m
Length of Day
12h 15m
Waning Gibbous, 74% of the Moon is Illuminated
Sep 19
Waning Gibbous
Sep 21
Last Quarter
Sep 28
New
Oct 5
First Quarter
Oct 13
Full

Hourly Weather History & Observations

Time (EDT) Temp. Heat Index Dew Point Humidity Pressure Visibility Wind Dir Wind Speed Gust Speed Precip Events Conditions
12:10 AM 68.0 °F - 60.8 °F 78% 30.17 in 10.0 mi East 4.6 mph - N/A   Overcast
12:30 AM 68.0 °F - 60.8 °F 78% 30.17 in 10.0 mi East 4.6 mph - N/A   Overcast
12:50 AM 68.0 °F - 60.8 °F 78% 30.17 in 10.0 mi East 4.6 mph - N/A   Overcast
1:10 AM 69.8 °F - 60.8 °F 73% 30.17 in 10.0 mi ENE 3.5 mph - N/A   Overcast
1:30 AM 69.8 °F - 60.8 °F 73% 30.18 in 10.0 mi East 3.5 mph - N/A   Overcast
1:50 AM 69.8 °F - 60.8 °F 73% 30.18 in 10.0 mi ENE 3.5 mph - N/A   Overcast
2:10 AM 69.8 °F - 60.8 °F 73% 30.17 in 10.0 mi ENE 3.5 mph - N/A   Overcast
2:30 AM 68.0 °F - 60.8 °F 78% 30.17 in 10.0 mi Calm Calm - N/A   Overcast
2:50 AM 68.0 °F - 60.8 °F 78% 30.17 in 10.0 mi Calm Calm - N/A   Overcast
3:10 AM 68.0 °F - 60.8 °F 78% 30.17 in 10.0 mi ENE 3.5 mph - N/A   Overcast
3:30 AM 68.0 °F - 60.8 °F 78% 30.17 in 10.0 mi Calm Calm - N/A   Mostly Cloudy
3:50 AM 68.0 °F - 60.8 °F 78% 30.17 in 10.0 mi Calm Calm - N/A   Scattered Clouds
4:10 AM 68.0 °F - 60.8 °F 78% 30.17 in 10.0 mi Calm Calm - N/A   Scattered Clouds
4:30 AM 68.0 °F - 60.8 °F 78% 30.18 in 10.0 mi Calm Calm - N/A   Mostly Cloudy
4:50 AM 68.0 °F - 60.8 °F 78% 30.18 in 10.0 mi ENE 3.5 mph - N/A   Overcast
5:10 AM 68.0 °F - 60.8 °F 78% 30.18 in 10.0 mi Calm Calm - N/A   Overcast
5:30 AM 68.0 °F - 60.8 °F 78% 30.18 in 10.0 mi Calm Calm - N/A   Overcast
5:50 AM 68.0 °F - 60.8 °F 78% 30.18 in 10.0 mi ENE 3.5 mph - N/A   Overcast
6:10 AM 68.0 °F - 60.8 °F 78% 30.19 in 10.0 mi ENE 3.5 mph - N/A   Overcast
6:30 AM 68.0 °F - 60.8 °F 78% 30.19 in 10.0 mi Calm Calm - N/A   Scattered Clouds
6:50 AM 68.0 °F - 60.8 °F 78% 30.20 in 10.0 mi Calm Calm - N/A   Mostly Cloudy
7:10 AM 68.0 °F - 60.8 °F 78% 30.21 in 10.0 mi Calm Calm - N/A   Scattered Clouds
7:30 AM 66.2 °F - 60.8 °F 83% 30.21 in 10.0 mi Calm Calm - N/A   Scattered Clouds
7:50 AM 66.2 °F - 60.8 °F 83% 30.22 in 10.0 mi Calm Calm - N/A   Scattered Clouds
8:10 AM 66.2 °F - 60.8 °F 83% 30.23 in 10.0 mi Calm Calm - N/A   Mostly Cloudy
8:30 AM 68.0 °F - 60.8 °F 78% 30.23 in 10.0 mi East 3.5 mph - N/A   Overcast
8:50 AM 68.0 °F - 59.0 °F 73% 30.24 in 10.0 mi East 4.6 mph - N/A   Overcast
9:10 AM 69.8 °F - 59.0 °F 68% 30.25 in 10.0 mi East 4.6 mph - N/A   Overcast
9:30 AM 69.8 °F - 59.0 °F 68% 30.25 in 10.0 mi East 4.6 mph - N/A   Overcast
9:50 AM 71.6 °F - 55.4 °F 57% 30.25 in 10.0 mi East 8.1 mph - N/A   Mostly Cloudy
10:10 AM 71.6 °F - 55.4 °F 57% 30.26 in 10.0 mi ESE 12.7 mph 17.3 mph N/A   Scattered Clouds
10:30 AM 73.4 °F - 55.4 °F 53% 30.26 in 10.0 mi East 4.6 mph 19.6 mph N/A   Clear
10:50 AM 73.4 °F - 53.6 °F 50% 30.26 in 10.0 mi East 6.9 mph 18.4 mph N/A   Clear
11:10 AM 73.4 °F - 51.8 °F 47% 30.27 in 10.0 mi ESE 11.5 mph - N/A   Clear
11:30 AM 73.4 °F - 51.8 °F 47% 30.26 in 10.0 mi East 6.9 mph 16.1 mph N/A   Clear
11:50 AM 73.4 °F - 51.8 °F 47% 30.26 in 10.0 mi ESE 12.7 mph 17.3 mph N/A   Clear
12:30 PM 77.0 °F - 51.8 °F 41% 30.26 in 10.0 mi ENE 12.7 mph 19.6 mph N/A   Clear
12:50 PM 77.0 °F - 51.8 °F 41% 30.25 in 10.0 mi East 9.2 mph 19.6 mph N/A   Clear
1:10 PM 77.0 °F - 51.8 °F 41% 30.25 in 10.0 mi SE 9.2 mph - N/A   Clear
1:30 PM 77.0 °F - 50.0 °F 39% 30.25 in 10.0 mi ESE 8.1 mph 16.1 mph N/A   Clear
1:50 PM 77.0 °F - 51.8 °F 41% 30.24 in 10.0 mi ESE 9.2 mph - N/A   Clear
2:10 PM 78.8 °F - 51.8 °F 39% 30.23 in 10.0 mi East 9.2 mph 16.1 mph N/A   Clear
2:30 PM 78.8 °F - 51.8 °F 39% 30.23 in 10.0 mi SE 8.1 mph - N/A   Clear
2:50 PM 78.8 °F - 51.8 °F 39% 30.23 in 10.0 mi SE 8.1 mph - N/A   Scattered Clouds
3:10 PM 80.6 °F - 51.8 °F 37% 30.22 in 10.0 mi ESE 6.9 mph - N/A   Clear
3:30 PM 80.6 °F 80.3 °F 53.6 °F 39% 30.21 in 10.0 mi ENE 9.2 mph - N/A   Clear
3:50 PM 80.6 °F 80.3 °F 53.6 °F 39% 30.21 in 10.0 mi ESE 10.4 mph - N/A   Scattered Clouds
4:10 PM 80.6 °F 80.3 °F 53.6 °F 39% 30.21 in 10.0 mi ENE 5.8 mph - N/A   Scattered Clouds
4:30 PM 80.6 °F 80.3 °F 53.6 °F 39% 30.20 in 10.0 mi ESE 10.4 mph - N/A   Scattered Clouds
4:50 PM 80.6 °F 80.3 °F 53.6 °F 39% 30.20 in 10.0 mi SE 5.8 mph - N/A   Clear
5:10 PM 78.8 °F - 53.6 °F 42% 30.20 in 10.0 mi ESE 4.6 mph - N/A   Clear
5:30 PM 78.8 °F - 53.6 °F 42% 30.20 in 10.0 mi SE 5.8 mph - N/A   Clear
5:50 PM 78.8 °F - 53.6 °F 42% 30.20 in 10.0 mi ESE 8.1 mph - N/A   Clear
6:10 PM 78.8 °F - 53.6 °F 42% 30.20 in 10.0 mi SE 6.9 mph - N/A   Clear
6:30 PM 77.0 °F - 53.6 °F 44% 30.20 in 10.0 mi ESE 8.1 mph - N/A   Clear
6:50 PM 77.0 °F - 53.6 °F 44% 30.20 in 10.0 mi ESE 10.4 mph - N/A   Clear
7:10 PM 75.2 °F - 53.6 °F 47% 30.20 in 10.0 mi East 4.6 mph - N/A   Clear
7:30 PM 73.4 °F - 53.6 °F 50% 30.21 in 10.0 mi East 4.6 mph - N/A   Clear
7:50 PM 73.4 °F - 53.6 °F 50% 30.21 in 10.0 mi ENE 3.5 mph - N/A   Clear
8:10 PM 71.6 °F - 53.6 °F 53% 30.21 in 10.0 mi ENE 3.5 mph - N/A   Clear
8:30 PM 71.6 °F - 53.6 °F 53% 30.22 in 10.0 mi Calm Calm - N/A   Clear
8:50 PM 71.6 °F - 53.6 °F 53% 30.22 in 10.0 mi East 3.5 mph - N/A   Mostly Cloudy
9:10 PM 69.8 °F - 53.6 °F 56% 30.23 in 10.0 mi ENE 3.5 mph - N/A   Scattered Clouds
9:30 PM 69.8 °F - 53.6 °F 56% 30.24 in 10.0 mi ENE 4.6 mph - N/A   Clear
9:50 PM 69.8 °F - 53.6 °F 56% 30.25 in 10.0 mi Calm Calm - N/A   Clear
10:10 PM 68.0 °F - 55.4 °F 64% 30.25 in 10.0 mi Calm Calm - N/A   Clear
10:30 PM 68.0 °F - 55.4 °F 64% 30.26 in 10.0 mi Calm Calm - N/A   Clear
10:50 PM 66.2 °F - 55.4 °F 68% 30.26 in 10.0 mi Calm Calm - N/A   Clear
11:10 PM 66.2 °F - 55.4 °F 68% 30.26 in 10.0 mi Calm Calm - N/A   Clear
11:30 PM 66.2 °F - 55.4 °F 68% 30.27 in 10.0 mi ENE 3.5 mph - N/A   Clear
11:50 PM 66.2 °F - 55.4 °F 68% 30.27 in 10.0 mi East 4.6 mph - N/A   Mostly Cloudy